Preview of NWS' New Version of Forecast
This preview is not operational and should not be used for support decisions.

Regional Weather Roundup (RWR)

Issued by National Weather Service (NWS)

                            
000
ASUS43 KMKX 171011
RWRWI 

WISCONSIN REGIONAL WEATHER ROUNDUP
NATIONAL WEATHER SERVICE MILWAUKEE/SULLIVAN WI
500 AM CDT WED JUL 17 2019

NOTE: "FAIR" INDICATES FEW OR NO CLOUDS BELOW 12,000 FEET WITH NO
SIGNIFICANT WEATHER AND/OR OBSTRUCTIONS TO VISIBILITY.

WIZ001-002-006>008-014>016-023>028-171100-
NORTHWEST WISCONSIN
  
CITY           SKY/WX    TMP DP  RH WIND       PRES   REMARKS
SUPERIOR ARPT  FAIR      66  66  99 CALM      29.91S                  
ASHLAND        MOCLDY    63  62  97 CALM      29.94R FOG              
HAYWARD        NOT AVBL                                               
SIREN          FAIR      68  67  96 CALM      29.92S                  
CUMBERLAND     FOG       64  63  94 NE3       29.94S VSB 1/4          
RICE LAKE      FAIR      65  65 100 CALM      29.94F                  
CHETEK         FAIR      64  64 100 E3        29.94R                  
LADYSMITH      FAIR      64  64 100 CALM      29.98R                  
EAU CLAIRE     FAIR      64  62  93 NE5       29.93R                  
MENOMONIE      FAIR      61  61  98 E3        29.93R                  
NEW RICHMOND   FAIR      65  65  99 SE3       29.91F                  
OSCEOLA        FAIR      68  68 100 SE3       29.93F                  
$$
 
WIZ003>005-009-010-017-018-171100-
NORTH CENTRAL WISCONSIN
  
CITY           SKY/WX    TMP DP  RH WIND       PRES   REMARKS
MANITOWISH WTR FOG       57  57 100 CALM      29.98R VSB 1            
ARBOR VITAE    FAIR      62  58  87 CALM      29.98R FOG              
WOODRUFF       FAIR      62  58  87 CALM      29.98R FOG              
RHINELANDER    FAIR      63  61  93 CALM      29.98R                  
EAGLE RIVER    FAIR      57  57 100 CALM      29.99R                  
LAND O LAKES   MOCLDY    56  56 100 CALM      30.01R FOG              
PHILLIPS       FAIR      60  60 100 CALM      29.97R                  
TOMAHAWK       CLOUDY    57  56  97 CALM      29.98R VSB 3/4          
MEDFORD        FAIR      64  63  97 CALM      29.97R                  
MERRILL        FAIR      62  62 100 CALM      29.96R                  
$$
 
WIZ029-030-035-036-043>047-171100-
CENTRAL WISCONSIN
  
CITY           SKY/WX    TMP DP  RH WIND       PRES   REMARKS
WAUSAU         FAIR      68  64  87 CALM      29.93S                  
MOSINEE        FAIR      64  64 100 NE3       29.96R                  
MARSHFIELD     FAIR      65  64  97 CALM      29.94R FOG              
STEVENS POINT  FAIR      66  66 100 CALM      29.95R                  
WAUPACA        MOCLDY    72  69  91 CALM      29.93S                  
WAUTOMA        FAIR      70  70 100 NW5       29.93R                  
WISC RAPIDS    FAIR      69  67  93 N3        29.95R                  
CAMP DOUGLAS   NOT AVBL                                               
$$
 
WIZ011>013-019>022-031-037>040-048>050-171100-
NORTHEAST WISCONSIN
  
CITY           SKY/WX    TMP DP  RH WIND       PRES   REMARKS
ANTIGO         FAIR      62  61  94 NE3       29.97S                  
SHAWANO        FAIR      71  66  83 NE9       29.94R                  
OCONTO         FAIR      69  66  91 NE3       29.93R                  
STURGEON BAY   FAIR      68  67  96 NE8       29.94R                  
GREEN BAY      FAIR      72  69  90 N9        29.92R                  
MANITOWOC      MOCLDY    70  68  93 NE3       29.92R                  
APPLETON       FAIR      70  66  88 NE9       29.91S                  
CLINTONVILLE   FAIR      69  64  84 CALM      29.93R                  
OSHKOSH        MOCLDY    76  69  79 NW6       29.91R                  
$$
 
WIZ032>034-041-042-053>061-171100-
SOUTHWEST WISCONSIN
  
CITY           SKY/WX    TMP DP  RH WIND       PRES   REMARKS
LA CROSSE      FAIR      72  68  87 CALM      29.91F                  
SPARTA         MOCLDY    63  63  99 CALM      29.94S                  
VIROQUA        FAIR      66  66 100 CALM      29.95S                  
BOSCOBEL       FAIR      68  66  93 CALM      29.93R FOG              
PRAIRIE DU CHI FAIR      68  66  93 CALM      29.92S                  
PLATTEVILLE    FAIR      69  69 100 N3        29.94R                  
$$

WIZ056-057-062-063-064-067-068-171100-
SOUTH CENTRAL WISCONSIN
  
CITY           SKY/WX    TMP DP  RH WIND       PRES   REMARKS
REEDSBURG      FAIR      70  69  98 CALM      29.93R                  
BARABOO/DELLS  FAIR      69  64  82 CALM      29.93R                  
LONE ROCK      FAIR      68  67  96 W5        29.93R                  
MINERAL POINT  FAIR      68 N/A N/A NW3       29.94R                  
MADISON        FAIR      69  67  93 NW3       29.91R                  
MIDDLETON      FAIR      69  67  92 NW3       29.92S                  
WATERTOWN      FAIR      70  69  95 CALM      29.91S                  
MONROE         FAIR      69  68  96 N3        29.92R                  
JANESVILLE     LGT RAIN  72  72 100 CALM      29.92R                  
$$
 
WIZ051-052-058>065-066-070>072-171100-
SOUTHEAST WISCONSIN
  
CITY           SKY/WX    TMP DP  RH WIND       PRES   REMARKS
MILWAUKEE      MOCLDY    78  69  73 NW6       29.88R HX  80           
WAUKESHA       FAIR      72  64  78 W7        29.92R                  
MILWAUKEE/TIMM FAIR      73  64  73 NW5       29.90R                  
RACINE         FAIR      75  70  84 W5        29.90R                  
KENOSHA        FAIR      73  72  96 CALM      29.89R                  
FOND DU LAC    FAIR      75  70  84 W7        29.91R                  
SHEBOYGAN      FAIR      73  69  87 N3        29.90R FOG              
WEST BEND      MOCLDY    73  70  88 NW3       29.90S                  
JUNEAU         FAIR      71  66  84 CALM      29.92S                  
$$

LSZ147-162-171100-
LAKE SUPERIOR
  
STATION/POSITION TIME  TEMP    WIND        PRES    WAVE
                       AIR SEA DIR/SP/G            HT/PER
                 (UTC) (F)     (DEG/KT/KT) (MB)    (FT/S)
W MID LAKE BUOY  0950   54 50  110/  8/  8 1013.2R   0
$$
 
LMZ867-665-643>646-171100-
LAKE MICHIGAN
  
STATION/POSITION TIME  TEMP    WIND        PRES    WAVE
                       AIR SEA DIR/SP/G            HT/PER
                 (UTC) (F)     (DEG/KT/KT) (MB)    (FT/S)
CHAMBERS ISLAND  0840   71      50/  9/ 11 1014.2R
S GREEN BAY BUOY 0930   75 74   40/ 12/ 16 1013.3R
N MID LAKE BUOY  0950   64 63   50/  8/  8 1013.9S   1/ 4
NORTHPORT PIER   0940   68      40/  3/  4 1013.5R
KEWAUNEE LAKESHO 0930   62      20/  5/  8 1012.3R
SHEBOYGAN LAKESH 1000   62      10/  9/  9 1012.2R
ATWATER BUOY     0930   67 60  160/  4/  6 1012.0R   0
MILWAUKEE LAKESH 0950   78     300/  8/  9   N/A
S MID LAKE BUOY  0950   69 70   CALM  /  2 1012.3R   0
KENOSHA   LAKESH 1000   75     310/  3/  7 1011.9
$$

TC  - TEMPERATURE IN CELSIUS
VSB - VISIBILITY IN STATUTE MILES
WCI - WIND CHILL INDEX
HX  - HEAT INDEX